Location: Drocourt
(49.0571°N, 1.7669°E)
Time: 14:32:20
(UTC+00:00)

Vanguard 3 - Pass Details

Date: 20 April 2024
Orbit: 509 x 3233 km, 33.3° (Epoch: 22 May)

Event Time Altitude Azimuth Distance (km) Brightness Sun altitude
Rises 03:08:38 0° 218° (SW) 6,674 - -15.5°
Reaches altitude 10° 03:14:52 10° 206° (SSW) 5,232 - -14.7°
Exits shadow 03:15:22 11° 205° (SSW) 5,117 10.7 -14.6°
Maximum altitude 03:24:36 22° 164° (SSE) 3,452 10.1 -13.4°
Drops below altitude 10° 03:31:30 10° 118° (ESE) 3,586 10.8 -12.5°
Sets 03:34:44 0° 103° (ESE) 4,178 11.5 -12.0°
